FW9555 Weather Reports


Display with metric or nautical units.
time (UTC)temp
F
wind
direction
speed
MPH
gust
MPH
rain 1hr
in
rain 24hr
in
rain mn
in
humidity
%
barometer
mb
20260902135144 81 289 0.0 3.0 0.00 0.00 0.00 89 1022.9
20260902134639 81 263 0.0 0.0 0.00 0.00 0.00 89 1022.9
20260902134138 80 279 0.0 1.0 0.00 0.00 0.00 90 1023.0
20260902133634 80 270 0.0 3.0 0.00 0.00 0.00 89 1022.8
20260902133134 79 20 1.0 2.0 0.00 0.00 0.00 91 1023.0
20260902132629 78 286 0.0 2.0 0.00 0.00 0.00 94 1023.1
20260902132124 77 0 0.0 0.0 0.00 0.00 0.00 99 1023.2
20260902131620 76 292 2.0 3.0 0.00 0.00 0.00 99 1023.4
20260902131115 76 8 0.0 0.0 0.00 0.00 0.00 99 1023.2
20260902130611 75 0 0.0 1.0 0.00 0.00 0.00 99 1023.1
20260902130106 75 337 0.0 2.0 0.00 0.00 0.00 99 1023.3
20260902125602 75 345 0.0 0.0 0.00 0.00 0.00 99 1023.2
20260902125057 75 345 0.0 1.0 0.00 0.00 0.00 99 1023.1
20260902124554 75 286 0.0 0.0 0.00 0.00 0.00 99 1023.1
20260902124054 74 286 0.0 0.0 0.00 0.00 0.00 99 1023.0
20260902123549 74 286 0.0 1.0 0.00 0.00 0.00 99 1023.0
20260902123044 74 8 0.0 0.0 0.00 0.00 0.00 99 1022.9
20260902122543 74 286 0.0 0.0 0.00 0.00 0.00 99 1023.1
20260902122039 73 286 0.0 0.0 0.00 0.00 0.00 99 1023.1
20260902121539 73 286 0.0 0.0 0.00 0.00 0.00 99 1022.9
20260902121034 73 286 0.0 0.0 0.00 0.00 0.00 99 1023.0
20260902120531 73 286 0.0 0.0 0.00 0.00 0.00 99 1023.0
20260902120027 72 286 0.0 0.0 0.00 0.00 0.00 99 1022.7
20260902115521 72 286 0.0 0.0 0.00 0.00 0.00 99 1023.1
20260902115018 72 286 0.0 0.0 0.00 0.00 0.00 99 1023.0
20260902114513 72 286 0.0 0.0 0.00 0.00 0.00 99 1022.9
20260902114008 72 286 0.0 0.0 0.00 0.00 0.00 99 1022.9
20260902113503 72 286 0.0 0.0 0.00 0.00 0.00 99 1022.8
20260902113004 72 286 0.0 0.0 0.00 0.00 0.00 99 1022.8
20260902112459 72 286 0.0 0.0 0.00 0.00 0.00 99 1022.7
20260902111955 71 286 0.0 0.0 0.00 0.00 0.00 99 1022.7
20260902111451 71 0 0.0 0.0 0.00 0.00 0.00 99 1022.8
20260902110947 71 0 0.0 0.0 0.00 0.00 0.00 99 1022.6
20260902110443 71 0 0.0 0.0 0.00 0.00 0.00 99 1022.6
20260902105937 71 0 0.0 0.0 0.00 0.00 0.00 99 1022.5
20260902105433 71 0 0.0 0.0 0.00 0.00 0.00 99 1022.6
20260902104927 71 0 0.0 0.0 0.00 0.00 0.00 99 1022.6
20260902104423 71 0 0.0 0.0 0.00 0.00 0.00 99 1022.6
20260902103923 71 0 0.0 0.0 0.00 0.00 0.00 99 1022.5
20260902103418 71 0 0.0 0.0 0.00 0.00 0.00 99 1022.5
20260902102913 71 0 0.0 0.0 0.00 0.00 0.00 99 1022.7
20260902102411 71 0 0.0 0.0 0.00 0.00 0.00 99 1022.6
20260902101907 71 0 0.0 0.0 0.00 0.00 0.00 99 1022.6
20260902101401 72 0 0.0 0.0 0.00 0.00 0.00 99 1022.4
20260902100900 72 0 0.0 0.0 0.00 0.00 0.00 99 1022.3
20260902100400 72 0 0.0 0.0 0.00 0.00 0.00 99 1022.2
20260902095855 72 0 0.0 0.0 0.00 0.00 0.00 99 1022.1
20260902095354 72 0 0.0 0.0 0.00 0.00 0.00 99 1022.3
20260902094849 72 0 0.0 0.0 0.00 0.00 0.00 99 1022.0
20260902094345 72 0 0.0 0.0 0.00 0.00 0.00 99 1022.3
20260902093844 71 0 0.0 0.0 0.00 0.00 0.00 99 1022.2
20260902093340 72 0 0.0 0.0 0.00 0.00 0.00 99 1022.1
20260902092838 72 0 0.0 0.0 0.00 0.00 0.00 99 1022.2
20260902092334 72 0 0.0 0.0 0.00 0.00 0.00 99 1022.3
20260902091829 72 0 0.0 0.0 0.00 0.00 0.00 99 1022.2
20260902091325 72 0 0.0 0.0 0.00 0.00 0.00 99 1022.1
20260902090821 72 0 0.0 1.0 0.00 0.00 0.00 99 1022.1
20260902090320 72 353 0.0 0.0 0.00 0.00 0.00 99 1022.1
20260902085819 72 353 0.0 0.0 0.00 0.00 0.00 99 1022.0
20260902085315 72 353 0.0 0.0 0.00 0.00 0.00 99 1021.9
20260902084810 72 353 0.0 0.0 0.00 0.00 0.00 99 1022.0
20260902084307 72 353 0.0 0.0 0.00 0.00 0.00 99 1022.0
20260902083756 72 345 0.0 1.0 0.00 0.00 0.00 99 1021.7
20260902083256 72 75 0.0 0.0 0.00 0.00 0.00 99 1022.0
20260902082751 72 75 0.0 0.0 0.00 0.00 0.00 99 1021.7
20260902082247 72 75 0.0 0.0 0.00 0.00 0.00 99 1021.9
20260902081744 72 75 0.0 0.0 0.00 0.00 0.00 99 1021.7
20260902081239 72 75 0.0 0.0 0.00 0.00 0.00 99 1021.6
20260902080734 72 75 0.0 0.0 0.00 0.00 0.00 99 1021.7
20260902080231 72 75 0.0 0.0 0.00 0.00 0.00 99 1021.8
20260902075730 73 74 0.0 2.0 0.00 0.00 0.00 99 1021.8
20260902075226 73 15 0.0 1.0 0.00 0.00 0.00 99 1021.6
20260902074726 72 279 0.0 0.0 0.00 0.00 0.00 99 1021.8
20260902074222 72 270 0.0 1.0 0.00 0.00 0.00 99 1021.6
20260902073717 73 8 0.0 0.0 0.00 0.00 0.00 99 1021.7
20260902073213 73 90 0.0 0.0 0.00 0.00 0.00 99 1021.5
20260902072709 73 90 0.0 0.0 0.00 0.00 0.00 99 1021.8
20260902072205 73 60 0.0 2.0 0.00 0.00 0.00 99 1021.5
20260902071701 73 96 0.0 0.0 0.00 0.00 0.00 99 1021.7
20260902071155 72 96 0.0 0.0 0.00 0.00 0.00 99 1021.4
20260902070652 73 96 0.0 0.0 0.00 0.00 0.00 99 1021.6
20260902070151 73 96 0.0 0.0 0.00 0.00 0.00 99 1021.8
20260902065650 73 96 0.0 0.0 0.00 0.00 0.00 99 1021.9
20260902065146 73 96 0.0 0.0 0.00 0.00 0.00 99 1021.8
20260902064641 73 96 0.0 0.0 0.00 0.00 0.00 99 1021.6
20260902064136 73 29 0.0 1.0 0.00 0.00 0.00 99 1021.7
20260902063632 73 12 0.0 0.0 0.00 0.00 0.00 99 1021.7
20260902063127 73 12 0.0 0.0 0.00 0.00 0.00 99 1021.7
20260902062625 73 12 0.0 0.0 0.00 0.00 0.00 99 1021.7
20260902062121 73 345 0.0 0.0 0.00 0.00 0.00 99 1021.7
20260902061620 73 345 0.0 1.0 0.00 0.00 0.00 99 1021.8
20260902061116 73 20 0.0 0.0 0.00 0.00 0.00 99 1021.7
20260902060613 73 20 0.0 1.0 0.00 0.00 0.00 99 1021.7
20260902060109 73 55 0.0 0.0 0.00 0.00 0.00 99 1021.6
20260902055604 73 55 0.0 0.0 0.00 0.00 0.00 99 1021.6
20260902055059 74 55 0.0 0.0 0.00 0.00 0.00 99 1021.8
20260902054554 74 55 0.0 0.0 0.00 0.00 0.00 99 1021.7
20260902054050 74 55 0.0 0.0 0.00 0.00 0.00 99 1021.8
20260902053545 73 55 0.0 0.0 0.00 0.00 0.00 99 1021.5
20260902053045 73 55 0.0 0.0 0.00 0.00 0.00 99 1021.6
20260902052539 74 55 0.0 0.0 0.00 0.00 0.00 99 1021.7
20260902052035 74 51 0.0 0.0 0.00 0.00 0.00 98 1021.6
20260902051535 74 51 0.0 0.0 0.00 0.00 0.00 98 1021.9
20260902051033 74 51 0.0 0.0 0.00 0.00 0.00 98 1021.6
20260902050529 74 51 0.0 0.0 0.00 0.00 0.00 98 1021.6
20260902050024 74 51 0.0 0.0 0.00 0.00 0.00 98 1021.4
20260902045520 74 51 0.0 0.0 0.00 0.00 0.00 98 1021.6
20260902045016 74 51 0.0 0.0 0.00 0.00 0.00 98 1021.5
20260902044516 74 51 0.0 0.0 0.00 0.00 0.00 97 1021.7
20260902044012 75 74 0.0 2.0 0.00 0.00 0.00 97 1021.7
20260902043507 74 63 0.0 0.0 0.00 0.00 0.00 97 1021.7
20260902043006 74 63 0.0 0.0 0.00 0.00 0.00 97 1021.6
20260902042501 75 63 0.0 0.0 0.00 0.00 0.00 97 1021.4
20260902041956 75 63 0.0 0.0 0.00 0.00 0.00 97 1021.6
20260902041450 75 63 0.0 0.0 0.00 0.00 0.00 97 1021.6
20260902040945 75 63 0.0 0.0 0.00 0.00 0.00 96 1021.5
20260902040445 75 63 0.0 0.0 0.00 0.00 0.00 96 1021.4
20260902035943 75 82 0.0 0.0 0.00 0.00 0.00 96 1021.4
20260902035438 75 82 0.0 0.0 0.00 0.00 0.00 96 1021.6
20260902034933 75 82 0.0 0.0 0.00 0.00 0.00 95 1021.5
20260902034427 75 82 0.0 0.0 0.00 0.00 0.00 95 1021.7
20260902033926 75 82 0.0 0.0 0.00 0.00 0.00 95 1021.5
20260902033420 75 82 0.0 0.0 0.00 0.00 0.00 94 1021.6
20260902032920 75 82 0.0 0.0 0.00 0.00 0.00 94 1021.4
20260902032415 76 82 0.0 0.0 0.00 0.00 0.00 94 1021.4
20260902031914 76 300 0.0 0.0 0.00 0.00 0.00 93 1021.6
20260902031405 76 300 0.0 0.0 0.00 0.00 0.00 93 1021.5
20260902030901 76 300 0.0 0.0 0.00 0.00 0.00 93 1021.6
20260902030354 76 300 0.0 0.0 0.00 0.00 0.00 93 1021.4
20260902025854 76 300 0.0 0.0 0.00 0.00 0.00 93 1021.2
20260902025350 76 300 0.0 0.0 0.00 0.00 0.00 93 1021.3
20260902024844 76 300 0.0 0.0 0.00 0.00 0.00 92 1021.4
20260902024340 77 300 0.0 0.0 0.00 0.00 0.00 92 1021.3
20260902023835 76 300 0.0 0.0 0.00 0.00 0.00 92 1021.2
20260902023331 76 300 0.0 0.0 0.00 0.00 0.00 92 1021.2
20260902022829 77 300 0.0 0.0 0.00 0.00 0.00 92 1021.4
20260902022324 77 300 0.0 0.0 0.00 0.00 0.00 91 1021.1
20260902021821 77 300 0.0 0.0 0.00 0.00 0.00 91 1021.3
20260902021315 77 300 0.0 0.0 0.00 0.00 0.00 91 1021.0
20260902020811 77 300 0.0 0.0 0.00 0.00 0.00 90 1021.3
20260902020307 77 300 0.0 0.0 0.00 0.00 0.00 90 1021.4
20260902015802 77 300 0.0 0.0 0.00 0.00 0.00 89 1021.4
20260902015258 77 300 0.0 0.0 0.00 0.00 0.00 90 1021.1
20260902014754 78 300 0.0 0.0 0.00 0.00 0.00 90 1021.2
20260902014250 78 300 0.0 0.0 0.00 0.00 0.00 89 1021.3
20260902013748 78 300 0.0 0.0 0.00 0.00 0.00 87 1021.0
20260902013244 78 300 0.0 0.0 0.00 0.00 0.00 87 1020.9
20260902012739 78 300 0.0 0.0 0.00 0.00 0.00 86 1020.8
20260902012235 78 300 0.0 0.0 0.00 0.00 0.00 85 1021.0
20260902011730 79 300 0.0 0.0 0.00 0.00 0.00 85 1020.7
20260902011230 79 300 0.0 0.0 0.00 0.00 0.00 85 1020.5
20260902010724 79 300 0.0 0.0 0.00 0.00 0.00 85 1020.8
20260902010220 79 300 0.0 0.0 0.00 0.00 0.00 84 1020.8
20260902005718 79 300 0.0 0.0 0.00 0.00 0.00 85 1020.9
20260902005214 80 300 0.0 0.0 0.00 0.00 0.00 84 1020.7
20260902004714 80 300 0.0 0.0 0.00 0.00 0.00 83 1020.8
20260902004209 80 300 0.0 0.0 0.00 0.00 0.00 83 1020.4
20260902003704 81 300 0.0 0.0 0.00 0.00 0.00 83 1020.6
20260902003159 81 300 0.0 0.0 0.00 0.00 0.00 83 1020.7
20260902002654 81 300 0.0 0.0 0.00 0.00 0.00 82 1020.6
20260902002149 82 300 0.0 0.0 0.00 0.00 0.00 80 1020.5
20260902001644 82 300 0.0 0.0 0.00 0.00 0.00 79 1020.6
20260902001143 82 300 0.0 0.0 0.00 0.00 0.00 79 1020.4
20260902000639 83 300 0.0 0.0 0.00 0.00 0.00 79 1020.6
20260902000134 84 300 0.0 0.0 0.00 0.00 0.00 78 1020.5
20260901235634 84 300 0.0 0.0 0.00 0.00 0.00 77 1020.5
20260901235129 84 300 0.0 0.0 0.00 0.00 0.00 77 1020.7
20260901234628 85 300 0.0 0.0 0.00 0.00 0.00 75 1020.6
20260901234124 85 300 0.0 0.0 0.00 0.00 0.00 75 1020.7
20260901233619 86 300 0.0 0.0 0.00 0.00 0.00 73 1020.4
20260901233115 87 300 0.0 0.0 0.00 0.00 0.00 70 1020.7
20260901232614 88 300 0.0 0.0 0.00 0.00 0.00 68 1020.6
20260901232109 89 300 0.0 0.0 0.00 0.00 0.00 67 1020.6
20260901231606 89 300 0.0 0.0 0.00 0.00 0.00 66 1020.5
20260901231102 90 300 0.0 0.0 0.00 0.00 0.00 64 1020.7
20260901230557 93 300 0.0 0.0 0.00 0.00 0.00 61 1020.6
20260901230052 95 300 0.0 0.0 0.00 0.00 0.00 57 1020.7
20260901225547 95 300 0.0 0.0 0.00 0.00 0.00 59 1020.6
20260901225046 94 300 0.0 0.0 0.00 0.00 0.00 59 1020.8
20260901224543 93 300 0.0 0.0 0.00 0.00 0.00 57 1020.7
20260901224039 96 300 0.0 0.0 0.00 0.00 0.00 56 1020.8
20260901223534 97 300 0.0 0.0 0.00 0.00 0.00 54 1020.5
20260901223029 99 305 0.0 0.0 0.00 0.00 0.00 51 1020.7
20260901222525 99 305 0.0 0.0 0.00 0.00 0.00 50 1020.6
20260901222021 102 305 0.0 0.0 0.00 0.00 0.00 47 1020.7
20260901221517 100 345 0.0 2.0 0.00 0.00 0.00 48 1020.7
20260901221012 101 331 0.0 2.0 0.00 0.00 0.00 47 1020.7
20260901220512 101 286 0.0 0.0 0.00 0.00 0.00 47 1020.7
20260901220010 100 279 0.0 1.0 0.00 0.00 0.00 47 1020.9
20260901215508 97 0 0.0 3.0 0.00 0.00 0.00 49 1020.6
20260901215003 102 276 0.0 2.0 0.00 0.00 0.00 46 1020.7
20260901214501 100 355 0.0 0.0 0.00 0.00 0.00 48 1020.8
20260901213956 98 355 0.0 2.0 0.00 0.00 0.00 50 1020.7
20260901213450 98 334 2.0 3.0 0.00 0.00 0.00 49 1020.6
20260901212949 98 292 0.0 2.0 0.00 0.00 0.00 51 1020.9
20260901212445 96 350 2.0 3.0 0.00 0.00 0.00 52 1020.7
20260901211942 97 324 2.0 4.0 0.00 0.00 0.00 51 1020.6
20260901211437 97 297 2.0 2.0 0.00 0.00 0.00 53 1020.7
20260901210933 98 292 2.0 3.0 0.00 0.00 0.00 49 1020.8
20260901210429 98 315 2.0 2.0 0.00 0.00 0.00 50 1020.8
20260901205925 99 304 0.0 3.0 0.00 0.00 0.00 49 1020.8
20260901205419 98 346 2.0 3.0 0.00 0.00 0.00 50 1020.7
20260901204914 97 6 0.0 3.0 0.00 0.00 0.00 51 1020.9
20260901204410 97 82 0.0 3.0 0.00 0.00 0.00 51 1020.6
20260901203910 97 259 3.0 4.0 0.00 0.00 0.00 51 1020.8
20260901203404 96 41 2.0 4.0 0.00 0.00 0.00 51 1020.8
20260901202900 96 270 0.0 3.0 0.00 0.00 0.00 53 1021.0
20260901202354 97 307 2.0 3.0 0.00 0.00 0.00 53 1021.0
20260901201851 100 74 0.0 1.0 0.00 0.00 0.00 48 1020.8
20260901201350 99 279 0.0 1.0 0.00 0.00 0.00 49 1021.0
20260901200844 99 307 2.0 2.0 0.00 0.00 0.00 51 1021.1
20260901200340 96 19 2.0 3.0 0.00 0.00 0.00 51 1021.1
20260901195838 97 283 1.0 5.0 0.00 0.00 0.00 50 1021.1
20260901195336 98 7 0.0 0.0 0.00 0.00 0.00 55 1021.0
20260901194833 96 300 3.0 3.0 0.00 0.00 0.00 53 1021.3
20260901194327 95 270 3.0 3.0 0.00 0.00 0.00 54 1021.3
20260901193824 95 213 0.0 2.0 0.00 0.00 0.00 55 1021.0
20260901193322 96 6 0.0 1.0 0.00 0.00 0.00 55 1021.6
20260901192817 95 286 0.0 5.0 0.00 0.00 0.00 54 1021.2
20260901192313 96 26 0.0 2.0 0.00 0.00 0.00 54 1021.5
20260901191809 95 75 1.0 3.0 0.00 0.00 0.00 52 1021.4
20260901191304 96 303 2.0 4.0 0.00 0.00 0.00 55 1021.7
20260901190800 95 196 0.0 3.0 0.00 0.00 0.00 56 1021.5
20260901190300 93 11 3.0 5.0 0.00 0.00 0.00 55 1021.7
20260901185758 91 14 0.0 1.0 0.00 0.00 0.00 62 1021.8
20260901185257 93 214 0.0 2.0 0.00 0.00 0.00 60 1021.7
20260901184753 95 278 0.0 2.0 0.00 0.00 0.00 59 1021.6
20260901184248 93 0 0.0 2.0 0.00 0.00 0.00 60 1021.7
20260901183744 95 8 0.0 2.0 0.00 0.00 0.00 58 1021.9
20260901183243 96 270 0.0 4.0 0.00 0.00 0.00 56 1021.7
20260901182739 96 29 0.0 0.0 0.00 0.00 0.00 58 1021.9
20260901182238 95 0 0.0 2.0 0.00 0.00 0.00 61 1021.9
20260901181733 94 285 3.0 4.0 0.00 0.00 0.00 57 1021.9
20260901181228 94 40 0.0 2.0 0.00 0.00 0.00 60 1021.9
20260901180727 94 264 2.0 4.0 0.00 0.00 0.00 59 1022.1
20260901180226 92 0 2.0 4.0 0.00 0.00 0.00 61 1022.1
20260901175725 94 66 0.0 0.0 0.00 0.00 0.00 63 1022.1
20260901175221 94 286 0.0 2.0 0.00 0.00 0.00 61 1021.9
20260901174715 93 325 1.0 3.0 0.00 0.00 0.00 62 1022.2
20260901174212 92 23 0.0 1.0 0.00 0.00 0.00 62 1022.1
20260901173707 93 0 0.0 3.0 0.00 0.00 0.00 61 1022.2
20260901173201 96 294 0.0 1.0 0.00 0.00 0.00 60 1022.2
20260901172657 93 0 1.0 4.0 0.00 0.00 0.00 59 1022.4
20260901172150 93 281 3.0 4.0 0.00 0.00 0.00 57 1022.3
20260901171650 93 270 0.0 0.0 0.00 0.00 0.00 59 1022.2
20260901171149 92 15 1.0 2.0 0.00 0.00 0.00 62 1022.4
20260901170648 92 15 0.0 3.0 0.00 0.00 0.00 60 1022.5
20260901170143 95 291 0.0 2.0 0.00 0.00 0.00 63 1022.5
20260901165642 94 0 0.0 0.0 0.00 0.00 0.00 63 1022.5
20260901165137 92 346 0.0 2.0 0.00 0.00 0.00 64 1022.6
20260901164634 92 264 2.0 2.0 0.00 0.00 0.00 64 1022.6
20260901164128 93 279 0.0 5.0 0.00 0.00 0.00 64 1022.8
20260901163624 92 243 0.0 2.0 0.00 0.00 0.00 63 1022.8
20260901163123 91 283 4.0 5.0 0.00 0.00 0.00 63 1022.7
20260901162618 91 11 2.0 3.0 0.00 0.00 0.00 64 1022.9
20260901162117 92 270 2.0 4.0 0.00 0.00 0.00 64 1022.9
20260901161617 93 286 0.0 0.0 0.00 0.00 0.00 63 1022.8
20260901161116 93 286 0.0 1.0 0.00 0.00 0.00 67 1022.9
20260901160613 93 302 3.0 3.0 0.00 0.00 0.00 66 1023.0
20260901160108 92 306 0.0 1.0 0.00 0.00 0.00 68 1023.1
20260901155606 91 7 0.0 1.0 0.00 0.00 0.00 63 1023.1
20260901155103 91 16 3.0 3.0 0.00 0.00 0.00 64 1023.3
20260901154602 90 74 1.0 5.0 0.00 0.00 0.00 66 1023.3
20260901154057 91 277 0.0 3.0 0.00 0.00 0.00 63 1023.2
20260901153552 89 254 0.0 2.0 0.00 0.00 0.00 69 1023.2
20260901153051 89 236 0.0 3.0 0.00 0.00 0.00 66 1023.3
20260901152546 89 286 0.0 4.0 0.00 0.00 0.00 67 1023.5
20260901152045 89 300 0.0 2.0 0.00 0.00 0.00 67 1023.3
20260901151542 88 81 0.0 4.0 0.00 0.00 0.00 69 1023.4
20260901151040 88 307 0.0 2.0 0.00 0.00 0.00 72 1023.5
20260901150538 86 5 2.0 3.0 0.00 0.00 0.00 72 1023.7
20260901150032 85 0 0.0 0.0 0.00 0.00 0.00 75 1023.5
20260901145530 85 304 0.0 3.0 0.00 0.00 0.00 75 1023.3
20260901145025 85 0 0.0 1.0 0.00 0.00 0.00 74 1023.5
20260901144521 84 297 0.0 3.0 0.00 0.00 0.00 75 1023.7
20260901144015 83 0 1.0 1.0 0.00 0.00 0.00 80 1023.6
20260901143511 83 270 0.0 2.0 0.00 0.00 0.00 80 1023.6
20260901143008 82 0 0.0 2.0 0.00 0.00 0.00 80 1023.6
20260901142508 82 342 2.0 3.0 0.00 0.00 0.00 82 1023.5
20260901142003 82 331 1.0 2.0 0.00 0.00 0.00 83 1023.5
20260901141502 81 144 0.0 2.0 0.00 0.00 0.00 83 1023.8
20260901140958 81 292 2.0 2.0 0.00 0.00 0.00 84 1023.7
20260901140456 80 345 1.0 2.0 0.00 0.00 0.00 85 1023.7
20260901135950 79 300 0.0 1.0 0.00 0.00 0.00 88 1023.6
20260901135450 79 188 0.0 0.0 0.00 0.00 0.00 90 1023.9